Terug naar catalogus

STARLINK-33869

ActiefCommunicatieVLEO
NORAD 63790·PAYLOAD·🇺🇸 United States

Gelanceerd May 2, 2025 vanaf Cape Canaveral Space Force Station

Loading…

Volgende Passages (komende 24 uur)

TLE

VersSource: CelesTrak SupGP

Epoch: Sep 15, 2026, 03:45 UTC

1 63790C 25091R   26258.15673611 -.00032332  00000+0 -11709-2 0  2587
2 63790  43.0032  62.2595 0001425 273.8002  14.1708 15.27600184    18

Volg STARLINK-33869 in realtime met AllMySat

Download on the App Store